Location: Ariel
(45.9570°N, 122.5700°W)
Time: 23:32:35
(UTC-07:00)

Transit 4A - Pass Details

Date: 20 July 2019
Orbit: 863 x 981 km, 66.8° (Epoch: 24 August)

Event Time Altitude Azimuth Distance (km) Brightness Sun altitude
Rises 13:22:49 0° 312° (NW) 3,656 10.8 64.6°
Reaches altitude 10° 13:26:34 10° 291° (WNW) 2,684 10.4 64.6°
Maximum altitude 13:29:53 15° 259° (WSW) 2,312 10.3 64.5°
Drops below altitude 10° 13:33:10 10° 226° (SW) 2,631 10.7 64.4°
Sets 13:36:48 0° 204° (SSW) 3,542 11.3 64.3°
